Vorticity
8 8 8 8 8 8 8 7 6 5 6 6 7 7 8 7 10 17 20 4 6 8 6 13 6 4 2 8 6 9 4 19 22 11 10 11 -4 13 -1 16 8 18 30 13 4
6 6 6 6 7 7 7 7 8 7 6 6 6 7 7 8 8 13 8 9 6 5 9 13 9 3 3 7 3 -6 -15 21 25 -7 -12 11 4 3 5 9 4 12 26 11 6
7 7 7 7 6 6 6 7 7 7 7 6 6 6 6 7 10 15 15 12 10 6 6 11 11 8 3 3 -1 6 33 -19 -18 19 25 16 14 -2 4 13 19 11 23 12 5
9 9 9 10 9 8 7 6 6 7 7 7 7 6 5 6 9 -15 32 16 8 14 8 9 10 5 5 -4 12 12 -2 -3 0 4 3 -4 21 5 -7 2 10 12 31 19 10
13 13 13 12 12 12 12 11 8 6 7 7 7 7 6 6 10 6 8 12 13 7 11 13 11 7 2 5 4 2 -11 -6 12 8 3 -3 -1 20 1 -3 9 11 12 19 13
8 10 12 13 13 14 14 16 15 12 8 7 7 7 6 7 9 12 11 7 3 19 8 8 16 8 9 4 0 10 -2 2 17 14 41 22 20 15 11 -3 20 12 9 16 13
7 9 8 5 7 8 8 14 18 17 14 12 8 6 7 3 6 3 1 15 2 1 14 7 21 14 8 3 6 -7 -8 21 -20 -22 -4 -3 16 -15 2 -2 17 12 10 14 10
4 7 5 5 8 9 8 10 10 17 20 16 12 9 8 2 5 8 11 8 15 12 14 7 18 16 2 10 4 -0 -2 13 9 -3 35 16 -4 5 8 2 7 16 10 8 8
9 6 5 6 4 7 12 3 8 21 17 21 18 11 17 14 14 11 12 13 16 17 11 12 3 14 4 3 -8 1 -0 5 22 -11 -31 35 5 3 -2 -5 11 9 11 14 9
15 8 5 6 4 10 5 8 2 1 -1 13 28 26 13 4 16 20 5 10 6 15 5 10 5 13 7 -1 9 5 17 15 15 16 18 -23 -8 18 7 -1 1 -7 0 2 17
9 16 15 13 7 10 8 5 3 26 -14 30 37 24 11 24 27 10 17 5 9 8 9 12 6 6 7 1 3 -8 16 -3 11 11 7 47 5 28 8 1 -2 -1 0 0 2
7 5 8 11 9 9 7 7 9 -9 7 13 12 75 35 -5 4 10 1 15 3 0 4 3 3 16 10 -0 3 0 -3 20 8 4 1 20 8 31 -12 4 9 -9 -22 37 6
5 6 4 6 7 9 12 8 6 6 1 11 3 -4 37 38 38 10 4 13 7 9 -1 6 15 15 8 2 -4 11 4 4 10 -9 -8 14 51 28 -2 10 7 2 -10 -1 19
11 7 8 5 8 6 15 12 9 7 21 3 -4 -5 8 34 48 17 -7 11 6 15 6 9 -30 60 6 0 3 9 5 -9 -1 4 9 -2 11 10 15 10 11 -2 -24 7 1
11 9 9 9 14 24 13 15 10 20 12 1 10 6 -14 -15 23 52 19 31 5 9 8 -14 40 -26 34 -10 5 24 6 1 -5 -1 -1 -3 4 58 15 -18 15 -5 -14 6 16
9 9 5 22 31 11 18 19 19 20 -5 31 -3 11 0 11 2 9 20 36 34 4 -0 17 -43 42 -5 11 7 7 7 1 2 11 41 8 -8 21 21 -17 24 10 -6 9 12
11 6 28 26 -5 16 19 14 13 13 -10 -10 6 31 3 22 14 17 -10 8 46 63 15 25 -2 -22 3 21 4 -5 19 28 47 35 12 10 30 -25 34 13 6 4 9 -1 6
11 16 28 -5 6 21 18 18 7 -17 5 10 -8 7 18 22 6 14 13 5 -17 30 27 4 62 -2 9 -3 28 18 -9 -46 -8 14 37 2 19 2 24 -29 23 35 7 13 1
11 20 17 3 4 23 11 1 -15 -1 -10 4 12 35 -1 10 8 9 17 48 -17 24 34 22 58 -13 6 4 4 16 23 -11 -38 51 3 9 33 12 10 -1 -15 28 49 12 -4
10 29 11 9 5 10 3 0 16 3 8 13 17 3 1 15 17 15 32 9 14 -21 -3 3 51 53 -23 25 -9 -4 -7 12 -3 -4 12 29 -9 1 14 21 -10 -0 14 33 4
15 39 -5 9 5 -0 24 7 9 4 8 11 9 25 12 -0 1 13 1 21 30 6 -15 17 21 49 14 10 27 5 20 20 10 -26 -20 6 41 11 20 14 15 4 -0 2 32
17 27 18 33 31 -8 8 5 1 6 11 -2 12 13 3 -1 15 22 -2 2 -2 22 -38 23 17 23 39 1 26 12 -14 20 -21 13 -3 -19 15 -14 11 2 14 54 6 -1 16
12 15 21 33 12 7 5 6 17 -3 12 3 9 26 3 13 19 -3 5 -1 28 20 -20 -21 -26 39 83 22 14 -3 39 -7 8 27 9 -52 13 22 8 7 24 32 51 20 9
11 6 25 10 1 6 9 14 20 -19 15 8 4 0 10 10 1 0 0 4 9 18 39 -13 25 -8 -42 -24 -30 66 -8 47 9 -5 18 -2 -1 2 -31 -19 58 48 25 26 5
10 -0 10 16 8 17 15 4 10 11 -6 5 11 2 8 10 15 17 15 -1 13 35 32 4 22 -0 15 24 26 24 44 30 15 6 -21 18 8 14 -6 13 69 4 23 21 -2
10 8 9 14 14 14 26 9 2 5 1 7 7 4 -9 11 0 11 -4 -5 8 10 49 12 37 8 67 21 25 6 26 -4 41 13 15 1 5 25 -30 19 39 7 11 8 -4
7 8 11 3 12 13 15 15 7 2 17 24 6 9 8 15 11 6 3 6 10 2 9 18 -0 -5 28 37 19 13 51 21 60 19 23 -19 9 15 11 9 9 14 6 7 17
Height
3150 3148 3146 3144 3142 3140 3138 3136 3135 3134 3133 3132 3131 3130 3130 3130 3129 3130 3133 3138 3136 3138 3140 3143 3147 3151 3154 3155 3157 3158 3159 3160 3160 3159 3160 3159 3161 3161 3165 3163 3162 3163 3165 3168 3169
3148 3146 3144 3141 3139 3137 3135 3134 3132 3131 3129 3129 3128 3127 3127 3127 3127 3128 3129 3129 3131 3133 3138 3141 3145 3148 3151 3154 3155 3157 3157 3159 3159 3160 3159 3162 3164 3164 3164 3163 3163 3164 3165 3170 3171
3146 3144 3141 3139 3136 3134 3131 3129 3128 3127 3125 3125 3124 3124 3124 3124 3125 3125 3125 3127 3129 3131 3135 3139 3142 3145 3149 3151 3153 3154 3152 3156 3159 3161 3162 3164 3165 3163 3164 3163 3164 3164 3165 3168 3171
3144 3141 3138 3135 3132 3130 3128 3125 3123 3122 3121 3120 3120 3119 3120 3121 3125 3123 3123 3124 3126 3129 3131 3134 3138 3140 3144 3146 3150 3150 3151 3154 3157 3160 3161 3163 3162 3163 3164 3167 3165 3166 3167 3169 3172
3142 3138 3135 3132 3129 3125 3123 3121 3118 3117 3116 3115 3115 3114 3115 3118 3123 3120 3121 3122 3123 3125 3128 3131 3134 3139 3142 3147 3150 3148 3151 3154 3157 3158 3159 3161 3161 3162 3163 3166 3166 3167 3169 3171 3174
3140 3137 3133 3129 3126 3122 3119 3116 3113 3110 3109 3110 3110 3109 3110 3115 3116 3116 3119 3119 3121 3123 3126 3128 3131 3138 3142 3145 3147 3148 3151 3154 3156 3157 3157 3160 3161 3161 3163 3166 3166 3168 3170 3173 3175
3138 3134 3131 3127 3123 3120 3116 3111 3108 3105 3103 3103 3104 3104 3104 3113 3109 3111 3115 3117 3118 3121 3122 3127 3131 3134 3138 3141 3146 3147 3150 3153 3153 3154 3158 3161 3162 3161 3163 3165 3166 3167 3170 3173 3176
3137 3132 3129 3125 3120 3117 3114 3108 3103 3100 3098 3096 3096 3098 3098 3105 3104 3107 3111 3113 3114 3117 3121 3125 3129 3131 3134 3137 3139 3143 3146 3149 3149 3152 3155 3159 3159 3161 3163 3163 3165 3166 3169 3171 3174
3135 3131 3127 3122 3117 3114 3110 3107 3101 3097 3095 3092 3090 3091 3094 3096 3099 3099 3103 3109 3111 3113 3117 3121 3124 3125 3131 3133 3136 3137 3137 3142 3146 3150 3151 3157 3157 3159 3162 3163 3165 3164 3166 3170 3172
3132 3128 3124 3119 3113 3110 3106 3103 3099 3096 3094 3089 3085 3087 3090 3089 3089 3091 3094 3102 3105 3108 3110 3113 3115 3118 3122 3124 3121 3128 3135 3137 3139 3144 3146 3151 3154 3153 3156 3159 3162 3162 3163 3165 3169
3130 3125 3121 3117 3111 3106 3104 3100 3097 3090 3092 3082 3079 3076 3080 3080 3083 3087 3090 3094 3099 3100 3101 3105 3105 3102 3105 3115 3122 3128 3132 3134 3133 3137 3145 3143 3144 3148 3152 3156 3158 3160 3162 3163 3168
3126 3122 3119 3114 3108 3104 3100 3096 3092 3088 3082 3083 3073 3066 3071 3071 3074 3081 3085 3088 3089 3089 3097 3101 3093 3100 3109 3115 3119 3123 3127 3129 3132 3132 3139 3141 3140 3141 3147 3148 3150 3153 3158 3161 3165
3122 3118 3114 3110 3105 3101 3097 3094 3090 3089 3085 3080 3074 3070 3066 3065 3064 3078 3079 3082 3084 3086 3087 3088 3089 3099 3104 3109 3113 3116 3120 3123 3127 3129 3132 3137 3137 3139 3143 3147 3150 3152 3157 3157 3160
3118 3113 3108 3105 3102 3096 3092 3088 3085 3084 3081 3077 3073 3072 3069 3061 3064 3072 3077 3080 3079 3080 3086 3085 3091 3093 3097 3100 3107 3109 3113 3119 3124 3129 3129 3132 3131 3132 3135 3142 3144 3148 3148 3151 3154
3113 3107 3103 3096 3093 3088 3086 3083 3082 3080 3080 3077 3071 3070 3071 3069 3066 3062 3061 3070 3068 3074 3079 3069 3080 3086 3089 3090 3100 3100 3113 3117 3119 3124 3127 3120 3129 3125 3129 3132 3135 3139 3144 3146 3148
3108 3102 3098 3093 3086 3084 3080 3079 3080 3081 3072 3072 3066 3064 3063 3064 3064 3060 3059 3058 3064 3069 3068 3071 3078 3081 3082 3089 3096 3105 3111 3114 3115 3118 3117 3113 3122 3117 3115 3119 3127 3132 3138 3141 3145
3104 3096 3092 3087 3085 3081 3076 3077 3078 3076 3074 3070 3063 3062 3063 3059 3059 3057 3057 3058 3059 3060 3058 3068 3069 3077 3083 3087 3093 3100 3105 3109 3110 3107 3107 3108 3112 3109 3112 3114 3116 3123 3130 3135 3141
3099 3092 3088 3084 3081 3079 3075 3075 3075 3077 3072 3070 3065 3062 3062 3057 3055 3051 3055 3057 3054 3049 3050 3055 3059 3061 3069 3077 3084 3089 3096 3095 3103 3103 3101 3101 3096 3100 3106 3111 3112 3116 3120 3127 3134
3095 3088 3084 3080 3078 3076 3075 3074 3074 3073 3071 3066 3063 3060 3060 3059 3058 3052 3054 3055 3058 3055 3057 3051 3044 3056 3061 3069 3075 3080 3079 3091 3095 3095 3096 3090 3092 3099 3103 3103 3109 3111 3119 3123 3128
3091 3085 3079 3076 3075 3075 3075 3074 3074 3070 3067 3065 3064 3063 3059 3057 3056 3053 3051 3054 3056 3056 3057 3053 3045 3043 3051 3062 3066 3066 3079 3083 3083 3090 3092 3082 3082 3085 3093 3095 3100 3106 3110 3114 3121
3089 3082 3077 3075 3075 3074 3072 3072 3070 3068 3065 3063 3063 3060 3058 3054 3054 3052 3052 3052 3049 3049 3053 3052 3048 3035 3043 3047 3049 3060 3064 3071 3080 3082 3085 3086 3072 3077 3085 3091 3094 3098 3101 3106 3111
3086 3081 3075 3070 3072 3069 3068 3066 3068 3064 3062 3061 3059 3057 3054 3053 3051 3051 3050 3049 3046 3046 3047 3050 3044 3038 3032 3038 3047 3057 3061 3067 3070 3073 3077 3078 3069 3072 3079 3083 3087 3090 3093 3098 3105
3080 3078 3070 3066 3066 3065 3064 3064 3062 3060 3058 3057 3055 3052 3051 3051 3050 3048 3047 3046 3044 3044 3049 3049 3046 3039 3028 3035 3042 3044 3051 3058 3062 3068 3069 3076 3063 3068 3072 3071 3073 3073 3079 3089 3098
3077 3072 3071 3067 3065 3062 3059 3059 3057 3057 3054 3053 3052 3050 3048 3047 3047 3045 3044 3042 3044 3043 3045 3050 3045 3041 3033 3031 3038 3038 3043 3048 3054 3058 3063 3062 3062 3067 3068 3067 3063 3063 3070 3082 3091
3076 3070 3067 3065 3062 3058 3056 3054 3052 3051 3050 3051 3048 3048 3047 3045 3043 3042 3041 3043 3043 3039 3042 3044 3037 3037 3029 3023 3027 3030 3035 3042 3044 3051 3053 3060 3063 3066 3069 3067 3062 3064 3069 3077 3084
3074 3069 3064 3061 3057 3054 3052 3050 3048 3047 3047 3046 3045 3043 3043 3042 3041 3038 3039 3040 3037 3035 3034 3037 3033 3029 3018 3022 3023 3026 3032 3036 3039 3045 3052 3057 3062 3065 3071 3067 3063 3065 3069 3075 3080
3069 3064 3059 3057 3053 3051 3049 3045 3042 3041 3040 3038 3037 3036 3035 3035 3034 3032 3031 3031 3032 3032 3030 3032 3033 3030 3016 3016 3022 3027 3028 3031 3032 3043 3050 3053 3061 3064 3066 3066 3064 3066 3069 3073 3077